Make your own free website on Tripod.com

GP4Danmark Racing Team

Belgique / Spa-Francorchamps
Home | Saison 2004/2005 | Galérie de Photos | Autres Liens | Contact | Classement

Qualification 2004/2005: (Sous la pluie)

11 Marco  0:35,422 - 1:19,994 1:57.791 + 0:02,480
13 Dan     0:35,402 - 1:20,031 1:57.961 + 0:02,650

Résultat de course:
Pos Nom du pilote Nom de l'écurie Hotlap Tours Temps Écart
1 Vincent Thuillier JUD 2:01,862 13 0:27:04 + 0:00,000
2 Thibaut Savard Twins 2:03,052 13 0:27:09 + 0:05,331
3 Jonathan Robberechts Life-nfi 2:02,459 13 0:27:11 + 0:07,005
4 Arnaud Dumont Nova 2:02,729 13 0:27:11 + 0:07,038
5 Nicolas Specht Oreka 2:04,269 13 0:27:24 + 0:20,242
6 Olivier PETIT JUD 2:04,589 13 0:27:28 + 0:24,107
7 Robert Debrusse Red Bull 2:04,675 13 0:27:28 + 0:24,561
8 Patrick D Oreka 2:04,925 13 0:27:34 + 0:30,066
9 Michel Usal AOD 2:05,016 13 0:27:36 + 0:32,005
10 Davide Cervasio Renault Sport 2:05,260 13 0:27:37 + 0:32,986
11 Terry Despois Twins 2:05,692 13 0:27:38 + 0:34,032
12 Manuel Le reste McRace 2:05,900 13 0:27:40 + 0:36,617
13 Didier G Renault 2:06,428 13 0:27:56 + 0:51,676
14 Richard Richard AMS Racing 2:05,455 13 0:27:56 + 0:51,683
15 Marco Danmark 2:06,616 13 0:27:57 + 0:53,582
16 fabien barthes C.E.I. 2:06,764 13 0:27:58 + 0:54,588
17 Francis Jannin Mistery Machine 2:06,430 13 0:27:58 + 0:54,640
18 Xavier Maes NMH 2:07,558 13 0:28:04 + 1:00,558
19 DAN Inc. Danmark 2:07,154 13 0:28:05 + 1:00,776
20 cédric BOISSIER Sohe 2:07,128 13 0:28:08 + 1:04,253
21 Bertrand Ferré Phoenix 2:06,138 13 0:28:21 + 1:17,327
22 Sébastien Bédé McRace 2:08,773 13 0:28:24 + 1:20,440
23 Bruno Fréchette Fuselus 2:08,271 13 0:28:26 + 1:22,524
24 Jean-René M. Skunk TGV 2:08,241 13 0:28:32 + 1:28,518
25 William Pierotti Renault Sport 2:08,413 13 0:28:35 + 1:31,171
26 cyril BERTIN AOC 2:09,206 13 0:28:37 + 1:33,153
27 Hugo Drax Red Bull 2:09,065 13 0:28:50 + 1:46,492
28 Bruno Cribier AOD 2:07,430 13 0:28:57 + 1:53,448
29 Sébastien LaRochelle Flagothier 2:08,695 13 0:29:00 + 1:56,513
30 jean francois moreau Renault 2:09,894 13 0:29:26 + 2:22,257
31 laurent Dudot Nova 0:21,627 13 0:30:27 + 3:23,436
32 Fabrice Birginie Orange 2:17,097 12 0:28:37 + 1:33,312
33 Camille-Timothée Oger Oger 2:21,841 12 0:31:45 + 4:40,694

Commentaires:
 
Et bien pour ce qui est de la pluie l'écurie Danmark a subit plus d'une douche!
 
Nos mécanos se sont rendu compte que nôtre boîte à vitesse restait bloquée et nous ne pouvions dépasser au dessus des quelques 300km/hr. Disont que nous n'avions plus de 7eme vitesse. Cela n'a pas été facile à identifier avec toute cette brume dans nos lunettes...
 
La solution a été trouvé malheureusement après la Grand Prix de Belgique.
 
Recalibrer notre volant MOMO Logitech avant chaque coures.